Wind_Speed
110 108 113 113 110 105 111 102 103 102 97 94 92 97 102 98 91 90 94 82 71 86 84 76 68 67 67 66 61 59 55 56 54 53 50 48 42 42 41 33 27 28 27 27 26
114 110 112 113 111 111 110 106 105 105 101 98 95 94 104 102 103 95 92 86 87 68 75 79 79 68 68 67 62 62 56 55 56 54 54 51 46 43 40 34 31 30 32 30 28
117 113 111 115 112 112 111 111 109 107 105 103 99 95 96 105 106 103 91 88 85 83 81 76 75 75 73 69 63 58 59 56 53 55 55 53 48 45 43 39 34 34 36 35 32
118 118 113 116 114 113 110 115 111 110 107 104 102 97 96 98 105 108 101 102 97 93 92 83 78 76 76 70 62 60 58 54 53 52 56 55 53 50 46 45 41 40 39 39 36
116 119 116 116 118 115 113 113 113 111 110 104 100 99 97 92 96 105 106 106 101 96 92 93 82 80 75 74 68 63 59 58 57 56 54 50 49 48 48 47 45 43 43 43 43
113 120 119 119 119 117 115 113 112 111 110 107 105 102 101 93 92 96 100 99 100 102 93 94 93 80 82 75 73 68 63 60 57 57 55 54 49 49 50 45 46 45 43 44 47
112 120 123 120 122 120 117 117 114 110 108 110 107 106 101 101 96 93 94 94 99 99 100 95 91 88 85 74 78 75 68 63 62 58 57 57 50 50 52 48 46 48 46 47 47
110 117 122 120 123 122 119 119 117 113 109 110 108 107 106 103 100 93 94 94 94 98 98 98 95 93 86 86 79 84 79 66 66 61 60 58 56 56 54 53 51 51 50 49 51
105 114 122 123 121 124 122 120 120 116 114 110 111 106 110 106 103 99 96 95 93 93 100 102 97 97 94 86 78 76 75 72 77 76 69 64 63 60 55 52 49 48 50 52 54
99 113 119 122 122 123 125 122 120 118 119 113 114 112 104 106 107 102 97 96 94 93 93 96 101 101 94 94 86 83 76 82 82 81 80 78 69 68 63 58 52 46 48 56 57
97 110 118 124 125 121 126 123 122 123 118 115 113 113 110 110 109 107 105 99 98 94 95 94 92 95 101 99 96 95 91 81 82 86 83 77 71 71 68 59 58 57 57 53 55
94 105 116 121 124 123 124 125 124 122 117 120 117 115 114 111 111 112 109 106 103 104 97 95 89 92 98 104 104 100 98 89 89 88 85 83 73 72 67 67 65 61 59 60 57
89 100 113 119 124 125 123 120 127 123 120 123 119 122 118 115 112 113 113 107 107 105 111 106 93 95 95 96 101 102 101 99 96 93 95 88 82 82 76 70 74 78 67 62 67
84 96 108 118 122 126 126 121 125 125 129 127 124 125 122 119 115 113 115 110 109 109 107 106 102 102 98 98 96 94 97 102 106 103 96 96 88 85 82 75 76 72 71 74 71
79 91 102 115 121 124 124 124 120 132 130 125 130 123 120 120 117 113 114 113 109 112 109 105 105 107 106 104 104 100 98 101 100 101 104 98 94 84 83 79 82 82 81 80 76
74 85 97 111 120 124 125 124 125 126 132 130 130 126 118 118 120 119 116 114 113 111 109 107 107 103 102 102 107 106 101 103 104 101 97 94 98 88 85 85 89 90 88 87 86
67 77 89 103 116 123 124 125 127 127 130 133 129 124 120 118 120 121 120 115 111 113 111 107 106 107 106 106 107 106 108 111 109 107 96 99 99 81 86 88 89 91 92 90 89
62 69 81 95 109 120 123 124 126 129 130 127 129 128 127 125 123 123 123 119 114 110 111 110 109 107 107 107 109 108 106 108 113 112 103 101 94 84 84 90 93 95 95 94 95
55 61 73 84 99 113 121 123 125 128 135 130 124 130 130 127 124 124 123 121 121 117 113 110 111 110 108 109 111 113 112 112 109 108 105 99 89 89 91 90 95 97 98 99 97
48 56 65 76 89 104 116 122 124 127 131 129 128 120 130 127 126 127 126 120 121 123 122 120 117 115 115 114 113 110 111 111 111 107 105 97 91 87 96 96 96 99 101 99 99
42 49 58 67 80 92 108 120 123 124 130 128 124 122 117 125 124 124 125 126 121 124 126 127 125 122 122 118 116 116 113 112 112 112 109 101 93 88 89 93 97 101 102 103 103
36 43 52 63 72 83 94 109 119 120 124 126 126 124 123 118 124 125 128 128 128 128 130 128 127 126 124 123 122 122 119 120 119 112 111 107 94 90 89 89 90 94 99 102 104
33 43 49 57 65 75 84 94 106 117 123 124 124 126 124 120 123 127 126 125 128 130 131 131 133 131 130 128 126 124 121 122 122 120 116 113 96 97 99 99 100 102 103 103 103
20 30 38 47 56 67 74 83 93 105 116 122 123 123 122 124 128 122 126 128 129 129 134 136 135 131 125 125 127 128 127 127 128 127 116 116 102 101 102 105 108 108 110 111 112
16 22 28 37 47 57 65 70 80 92 100 111 120 121 119 122 127 127 130 125 124 126 132 134 132 135 127 126 126 124 127 129 131 124 126 114 115 108 111 112 113 115 117 119 118
9 15 20 29 38 46 53 60 65 74 85 96 104 107 113 119 123 126 128 131 131 128 129 127 129 131 130 130 132 131 130 127 123 122 128 118 119 115 118 120 118 120 123 122 121
10 2 10 21 29 36 43 50 57 63 69 76 85 90 96 107 117 122 122 125 129 129 130 131 131 129 122 125 130 133 126 126 130 127 123 123 115 124 119 120 122 126 127 124 123
Wind_Direction
219 219 215 214 215 214 218 219 219 221 219 219 218 216 218 216 216 221 222 221 227 235 233 236 234 235 235 239 237 236 237 237 237 243 249 248 252 258 260 260 254 245 256 258 259
216 216 216 212 212 214 216 216 218 220 220 220 222 220 216 218 215 220 221 224 226 225 238 242 240 234 234 234 236 237 238 240 239 243 248 250 251 254 253 251 247 248 251 253 250
213 213 214 212 210 213 214 216 217 218 220 221 220 223 220 218 218 217 217 218 223 221 233 235 241 238 231 234 234 237 238 239 243 244 247 248 253 252 255 254 248 246 249 253 252
211 211 210 212 209 212 214 216 218 218 219 222 223 222 223 222 219 221 222 221 226 227 227 231 233 236 236 234 235 235 237 239 241 245 248 249 251 253 255 259 258 246 248 251 252
210 210 209 211 211 210 212 218 216 219 219 220 224 224 225 224 222 223 223 225 227 227 230 233 232 231 237 234 232 236 234 237 238 242 246 249 251 255 259 259 256 251 249 250 254
210 209 209 209 212 211 212 216 218 217 218 219 220 223 223 225 225 226 225 228 227 229 227 232 233 229 232 232 231 236 235 235 237 239 243 246 250 256 258 262 262 255 252 250 252
210 208 208 208 210 212 213 213 217 219 220 218 219 220 221 224 225 226 227 228 228 228 229 228 231 235 229 232 230 231 232 231 233 237 240 243 250 254 254 258 258 254 249 249 248
209 209 208 207 208 211 213 214 216 218 220 221 221 220 219 222 225 225 228 231 229 229 226 228 229 230 235 237 234 232 228 232 232 233 237 244 247 250 252 254 257 256 254 249 246
209 208 207 207 208 211 212 214 215 217 219 221 222 222 221 221 220 224 227 230 231 231 229 228 231 230 231 232 235 238 238 232 231 231 228 238 246 248 247 249 254 257 259 255 249
208 208 207 207 208 209 212 213 216 217 219 220 221 222 222 224 223 220 226 231 232 233 234 232 232 233 232 232 233 233 235 235 235 234 231 235 232 245 246 245 247 252 256 253 253
210 208 207 207 207 209 212 213 214 217 219 220 222 223 222 222 224 227 222 225 232 236 235 234 235 235 236 234 232 233 236 235 231 234 237 237 244 236 236 244 253 251 251 254 257
211 208 208 207 207 209 211 212 214 217 218 221 221 224 224 224 224 226 227 224 223 230 236 238 236 236 236 237 235 235 236 235 235 236 236 239 237 240 241 245 244 246 254 253 254
211 209 208 208 208 210 211 212 214 216 218 222 220 223 223 225 225 224 226 229 228 224 229 234 236 236 236 238 237 237 238 238 238 237 237 238 238 237 243 247 251 250 241 248 253
211 209 208 208 208 209 211 211 215 217 217 219 221 222 222 224 225 225 225 226 230 230 230 230 232 235 238 241 241 241 241 242 242 240 238 238 236 241 244 246 246 243 247 246 243
213 210 208 208 208 209 211 212 214 217 218 219 222 222 221 224 225 227 227 228 228 232 233 232 232 234 235 238 242 242 243 243 243 244 242 239 240 238 243 246 247 248 246 246 251
213 212 208 208 209 210 211 212 213 218 219 219 222 222 222 224 226 227 229 229 230 231 233 236 237 237 238 239 240 241 244 245 245 247 244 245 247 238 242 246 248 250 251 251 251
214 211 210 209 210 210 211 212 214 217 221 219 221 223 224 224 227 228 229 229 230 233 233 234 236 239 240 241 241 241 242 244 246 247 246 246 247 241 242 245 249 253 254 253 253
214 212 211 210 211 211 212 213 215 217 221 221 221 223 223 224 226 228 228 229 230 232 235 235 236 237 240 243 245 242 242 244 245 247 246 245 247 247 246 246 250 253 256 256 256
214 212 212 211 212 212 212 214 215 218 221 222 221 221 223 224 226 229 229 230 230 231 233 235 236 237 238 241 243 246 248 246 245 248 249 249 250 249 248 247 249 253 257 259 261
213 211 214 212 213 213 214 215 217 219 223 223 224 223 223 224 226 228 231 231 232 234 234 235 236 238 240 241 243 246 247 252 255 253 251 250 251 250 250 251 252 255 259 260 262
212 212 213 214 214 215 215 217 218 220 224 224 225 225 226 225 226 228 229 232 234 235 235 236 237 238 240 243 244 244 246 247 249 252 256 253 251 253 254 254 256 257 260 262 263
210 211 213 214 214 216 217 218 220 220 224 226 225 226 227 226 227 228 229 230 232 235 238 238 239 239 240 241 243 245 246 247 249 252 253 255 256 259 258 257 256 256 256 257 259
206 208 212 215 216 218 218 219 221 222 225 226 227 227 227 228 230 230 232 231 232 234 237 240 241 240 241 243 245 247 248 250 250 250 252 254 255 254 257 258 259 260 261 261 260
206 213 215 218 218 220 222 221 222 224 226 228 229 228 227 228 231 231 233 233 234 235 237 238 241 244 244 244 244 246 247 249 250 251 253 255 256 256 256 257 258 259 261 263 264
193 197 206 214 219 221 225 226 225 226 227 229 232 231 230 230 232 233 235 235 236 238 239 240 240 241 244 246 247 248 249 250 251 253 255 253 254 254 254 254 255 257 259 260 261
187 202 213 219 224 226 229 231 232 230 230 231 234 234 234 233 235 234 235 236 237 239 242 243 244 243 243 244 247 248 249 251 253 254 255 255 254 255 254 256 257 259 259 260 263
69 128 218 219 222 228 231 233 236 237 237 237 239 240 237 237 238 238 239 239 240 240 242 244 246 247 246 245 245 247 250 251 252 255 256 256 256 256 258 258 258 258 260 260 260
Height
10474 10495 10512 10533 10550 10567 10579 10599 10611 10620 10636 10646 10658 10670 10681 10692 10703 10713 10720 10731 10736 10739 10747 10755 10763 10774 10782 10789 10799 10805 10810 10813 10816 10820 10823 10828 10831 10834 10836 10839 10841 10844 10845 10847 10847
10450 10471 10491 10510 10530 10545 10561 10577 10590 10603 10619 10631 10643 10654 10667 10678 10689 10700 10709 10719 10728 10736 10736 10742 10751 10762 10772 10780 10788 10796 10801 10805 10809 10813 10815 10820 10825 10829 10831 10833 10837 10840 10841 10842 10844
10426 10448 10469 10490 10509 10526 10541 10556 10571 10587 10601 10611 10625 10639 10652 10665 10676 10688 10697 10708 10715 10724 10730 10736 10741 10750 10760 10768 10778 10787 10793 10796 10801 10805 10809 10814 10816 10822 10825 10828 10832 10835 10837 10838 10839
10403 10425 10448 10467 10488 10506 10525 10537 10554 10567 10583 10598 10612 10625 10637 10649 10666 10677 10686 10696 10703 10709 10717 10724 10732 10741 10746 10758 10767 10775 10782 10787 10791 10797 10802 10806 10810 10814 10818 10823 10825 10829 10831 10833 10834
10383 10408 10428 10449 10469 10486 10505 10521 10535 10552 10568 10585 10600 10611 10623 10638 10655 10660 10670 10680 10690 10696 10705 10710 10720 10729 10733 10746 10756 10765 10772 10779 10783 10789 10794 10799 10803 10806 10811 10814 10817 10821 10826 10827 10828
10366 10387 10410 10430 10452 10470 10488 10505 10519 10535 10551 10570 10583 10597 10610 10629 10637 10648 10658 10667 10677 10687 10695 10701 10708 10715 10721 10732 10745 10753 10760 10768 10774 10779 10785 10789 10795 10800 10801 10805 10809 10813 10818 10820 10821
10349 10371 10392 10412 10433 10454 10471 10488 10505 10521 10536 10550 10566 10580 10600 10605 10621 10635 10643 10652 10662 10673 10682 10688 10696 10706 10710 10716 10732 10741 10748 10756 10764 10770 10775 10781 10786 10788 10790 10796 10801 10804 10808 10811 10814
10331 10353 10376 10397 10417 10438 10457 10472 10489 10505 10519 10534 10550 10565 10581 10591 10607 10620 10628 10636 10647 10659 10668 10676 10683 10692 10701 10711 10717 10731 10736 10747 10753 10756 10763 10769 10776 10775 10782 10789 10792 10796 10800 10803 10805
10315 10336 10359 10381 10401 10420 10439 10456 10472 10488 10502 10518 10535 10550 10560 10577 10588 10602 10613 10621 10630 10641 10653 10663 10670 10682 10691 10699 10709 10721 10733 10736 10738 10741 10746 10756 10764 10764 10772 10779 10784 10787 10791 10793 10794
10300 10318 10340 10362 10384 10404 10420 10439 10458 10473 10482 10502 10515 10533 10555 10564 10571 10584 10597 10607 10616 10625 10636 10647 10658 10670 10682 10690 10703 10707 10711 10717 10723 10728 10735 10744 10750 10754 10764 10770 10775 10779 10780 10781 10783
10283 10303 10323 10345 10366 10386 10401 10424 10439 10449 10470 10492 10509 10518 10528 10543 10554 10568 10577 10589 10600 10609 10620 10631 10645 10664 10668 10672 10678 10685 10696 10703 10708 10714 10726 10735 10745 10745 10750 10760 10763 10765 10768 10772 10773
10268 10287 10307 10328 10349 10367 10383 10408 10421 10439 10462 10470 10491 10500 10514 10526 10538 10549 10560 10572 10583 10597 10605 10615 10637 10641 10643 10654 10664 10671 10681 10690 10694 10701 10710 10720 10733 10738 10742 10747 10750 10753 10757 10759 10759
10254 10273 10293 10314 10334 10353 10372 10395 10407 10424 10444 10449 10470 10477 10495 10507 10521 10534 10545 10559 10569 10576 10588 10600 10617 10621 10627 10637 10648 10658 10667 10674 10676 10684 10693 10706 10721 10726 10728 10738 10741 10742 10741 10743 10742
10241 10257 10277 10297 10320 10336 10355 10378 10391 10409 10413 10428 10445 10454 10477 10491 10502 10517 10530 10545 10556 10565 10572 10583 10600 10607 10617 10627 10633 10643 10649 10653 10660 10666 10677 10690 10709 10717 10720 10725 10729 10727 10727 10725 10728
10228 10242 10261 10283 10301 10320 10342 10363 10381 10382 10396 10415 10423 10443 10467 10477 10497 10507 10517 10530 10542 10550 10559 10575 10582 10587 10599 10611 10608 10623 10627 10632 10640 10647 10662 10678 10685 10713 10708 10713 10708 10708 10711 10713 10716
10214 10230 10250 10267 10286 10303 10323 10343 10358 10363 10378 10396 10409 10430 10454 10471 10481 10491 10502 10514 10526 10535 10547 10558 10569 10577 10585 10589 10593 10605 10613 10616 10620 10628 10646 10661 10660 10702 10698 10696 10688 10690 10694 10698 10701
10204 10221 10238 10254 10271 10289 10306 10326 10337 10347 10353 10381 10400 10418 10439 10454 10464 10476 10488 10501 10511 10520 10534 10543 10554 10561 10567 10572 10576 10587 10595 10597 10600 10609 10635 10634 10635 10686 10683 10680 10676 10671 10674 10681 10684
10195 10212 10226 10244 10259 10275 10293 10311 10322 10335 10340 10360 10387 10401 10416 10432 10443 10456 10468 10485 10498 10507 10516 10526 10537 10546 10551 10554 10557 10562 10568 10572 10575 10590 10609 10614 10634 10663 10666 10666 10660 10655 10653 10658 10662
10190 10205 10219 10235 10250 10264 10280 10294 10310 10317 10316 10343 10363 10379 10395 10412 10430 10438 10453 10469 10476 10488 10496 10506 10515 10522 10532 10533 10534 10541 10551 10554 10561 10572 10585 10604 10630 10642 10645 10647 10638 10639 10639 10639 10647
10185 10197 10211 10225 10238 10252 10265 10279 10294 10302 10311 10331 10346 10367 10382 10397 10409 10419 10432 10450 10466 10472 10477 10487 10494 10503 10507 10512 10521 10533 10534 10539 10546 10559 10571 10593 10609 10623 10621 10625 10628 10625 10623 10626 10627
10180 10192 10203 10216 10229 10241 10254 10265 10277 10296 10296 10320 10338 10355 10370 10382 10397 10406 10419 10433 10443 10445 10453 10463 10474 10483 10489 10503 10508 10510 10519 10525 10526 10532 10547 10569 10592 10605 10611 10613 10611 10607 10604 10604 10605
10179 10188 10196 10206 10217 10227 10241 10252 10267 10282 10288 10302 10317 10334 10349 10365 10378 10384 10394 10410 10421 10428 10431 10441 10452 10463 10470 10479 10485 10491 10502 10502 10509 10527 10531 10546 10578 10585 10587 10587 10589 10584 10582 10584 10586
10173 10180 10188 10196 10208 10217 10229 10242 10254 10267 10273 10281 10300 10313 10334 10349 10353 10366 10379 10395 10403 10408 10413 10420 10425 10437 10449 10462 10476 10482 10487 10489 10493 10500 10514 10524 10570 10568 10565 10565 10563 10560 10560 10560 10564
10175 10181 10187 10193 10202 10211 10220 10231 10242 10251 10262 10269 10280 10297 10316 10329 10331 10352 10352 10371 10381 10387 10389 10396 10404 10421 10440 10448 10447 10452 10463 10464 10465 10472 10511 10512 10547 10548 10547 10539 10536 10539 10538 10536 10534
10174 10178 10185 10191 10197 10204 10213 10222 10232 10240 10249 10256 10262 10277 10297 10313 10314 10329 10334 10351 10361 10365 10367 10377 10391 10398 10422 10427 10430 10438 10440 10444 10445 10475 10474 10511 10505 10526 10515 10513 10510 10508 10510 10508 10513
10178 10181 10185 10191 10196 10202 10208 10214 10221 10230 10237 10244 10252 10266 10283 10295 10298 10309 10317 10327 10336 10348 10352 10362 10366 10384 10400 10401 10406 10413 10418 10428 10443 10452 10444 10479 10482 10491 10481 10484 10493 10490 10481 10485 10491
10181 10184 10188 10191 10195 10199 10204 10211 10216 10222 10230 10239 10245 10254 10269 10275 10283 10290 10302 10312 10320 10332 10336 10341 10348 10355 10375 10382 10381 10379 10411 10418 10416 10426 10438 10439 10468 10444 10468 10469 10465 10455 10451 10460 10464